WESTFORD NEEDLES, 18688

Orbit data source: Space-Track

WESTFORD NEEDLES, 18688 is space debris in LEO originally from a launch on Thu, 09 May 1963 UTC launched from the Air Force Western Test Range (AFWTR). Debris objects in space refer to the collection of defunct objects orbiting the Earth. Examples of debris include non-operational satellites, rocket bodies, and fragments generated from explosions, collisions, or faulty payload assembly.

Loading next visibility...
Identifier
18688, 1963-014DM
Orbit
LEO
Country
Flag of USUS
Related business
Manufacturer
Unknown
Mission
Spacecraft
Bus & Motor
Unknown
Mass
Unknown
Launch date (UTC)
1963-05-09 (63 years ago)
Launch vehicle
Unknown
Launch site
Air Force Western Test Range (AFWTR)
Object type
Payload
Rocket body
Debris
Shape & HBR
Unknown shape, 1.1 m
Radar Cross Section
Medium (>0.1 m² and <1 m²)

Expand to show TLE details & history
Last TLE update: 2 weeks ago

TLE from 2 weeks ago
0 WESTFORD NEEDLES
1 18688U 63014DM  26159.60057014  .00000005  00000-0  93559-3 0  9990
2 18688  87.3568 203.4041 0028421 123.2691 237.0892  8.65107969118591
Epoch: 2026-06-08T14:24Z
TLE epoch observation values (Epoch: 2026-06-08T14:24:49.260Z)
Latitude
0.00005°
Longitude
90.21376°
Altitude
3,663.138 km
Speed
6.296 km/s
True Right ascension
13h 33m 36s
True Declination
0° 00' 00"
Sunlit
Object was in daylight at epoch
Visualization orbit readout
Latitude
Unknown
Longitude
Unknown
Altitude
Unknown
Speed
Unknown
Apparent Right ascension
Unknown
Apparent Declination
Unknown
Sunlit
N/A
Visualization observer readout
Local Sidereal Time
15:26:15
Azimuth
Unknown
Elevation
Unknown
Doppler factor
Unknown
Orbital elements
Apogee altitude
3,671.72 km
Perigee altitude
3,614.756 km
Semi-major axis
10,021.375 km
Eccentricity
0.00284
Inclination
87.3568°
RAAN
203.4041°
Arg. of periapsis
123.2691°
True anomaly
236.81631°
Mean anomaly
237.0892°
Eccentric anomaly
236.9527°
Mean motion
2.16348 °/min
Orbital period
166.4 mins
BSTAR
0.00093559
Loading maneuver chart data...
Computing Atmospheric mass density...

Documentation

Showing up to 5 results
|